sat.trackr.live / text

‹ back to catalog

GLOBALSTAR M074

NORAD 37189 · 2010-054B

PAYLOAD ACTIVE UNKNOWN

§ Identity

Operator
Country
GLOB
Launch date
2010-10-19
Launch site
TYMSC
Launch vehicle
Mass (kg)
RCS (m²)
4.88

Purposes: comms

External: N2YO · Heavens-Above · Gunter

§ Orbital elements

Epoch: 2026-05-25T00:42:29.836800Z

Period
114.08 min
Inclination
51.9990°
Eccentricity
0.0000163
Mean motion
12.62268286 rev/d
Perigee alt
1,413.5 km
Apogee alt
1,413.7 km
Semi-major
7,791.7 km
B*
5.6317e-5
RAAN
178.4350°
Arg perigee
93.9134°
Mean anomaly
275.5668°
Rev number
72,023

§ Raw data

GLOBALSTAR M0741 37189U 10054B   26145.02951200 -.00000094  00000+0  56317-4 0  99942 37189  51.9990 178.4350 0000163  93.9134 275.5668 12.62268286720236

JSON: /api/v1/satellites/37189 · /tle

For live sub-satellite position, see the globe view (requires WebGL).

§ Visibility from observer

Set your observer location to see the next 7 days of passes ≥ 10°. The values pass through the URL so the page stays shareable.

No JS? Fill the form by hand. The geolocation button needs JavaScript.